Regional Weather Roundup
Issued by NWS

Home | Current Version | Previous Version | Text Only | Print | Product List | Glossary On
Versions: 1 2 3 4 5 6 7 8 9 10 11 12 13 14 15 16 17 18 19 20 21 22 23 24 25 26 27 28 29 30 31 32 33 34 35 36 37 38 39 40 41 42 43 44 45 46 47 48 49 50
000
ASUS43 KLMK 211710
RWRKY
KENTUCKY REGIONAL WEATHER ROUNDUP
NATIONAL WEATHER SERVICE LOUISVILLE KY
1200 PM EST FRI NOV 21 2014

NOTE "FAIR" INDICATES FEW OR NO CLOUDS BELOW 12,000 FEET
WITH NO SIGNIFICANT WEATHER AND/OR OBSTRUCTIONS TO VISIBILITY.

KYZ001>023-026-027-061>063-070>075-211800-
WESTERN AND SOUTH CENTRAL KENTUCKY

CITY           SKY/WX    TMP DP  RH WIND       PRES   REMARKS
PADUCAH        SUNNY     41  22  46 SE12      30.42F
HENDERSON      SUNNY     36  19  51 SE10      30.48S WCI  28
OWENSBORO      SUNNY     37  19  48 E9        30.49F WCI  30
HOPKINSVILLE   SUNNY     42  22  45 E6        30.45F
BOWLING GREEN  SUNNY     41  18  39 NE9       30.49S
GLASGOW        NOT AVBL
$$

KYZ024-025-028>034-038-045-046-053-211800-
NORTH CENTRAL KENTUCKY

CITY           SKY/WX    TMP DP  RH WIND       PRES   REMARKS
LOUISVILLE/SDF SUNNY     35  11  36 SE6       30.51F WCI  30
LOUISVILLE/LOU SUNNY     34  12  40 VRB6      30.52S WCI  29
FORT KNOX      SUNNY     35  13  41 E6        30.48F WCI  29
$$

KYZ035>037-039>044-047>052-055>060-089>105-211800-
NORTHEAST KENTUCKY

CITY           SKY/WX    TMP DP  RH WIND       PRES   REMARKS
LEXINGTON      SUNNY     33  10  38 NE5       30.50S WCI  29
COVINGTON      SUNNY     29  10  45 SE5       30.51F WCI  24
FRANKFORT      SUNNY     32   7  35 E6        30.50F WCI  26
$$

KYZ054-064>069-076>088-106>120-211800-
SOUTHEAST KENTUCKY

CITY           SKY/WX    TMP DP  RH WIND       PRES   REMARKS
JACKSON        SUNNY     33  15  47 CALM      30.47F
LONDON         SUNNY     37  15  40 E5        30.48S WCI  33
SOMERSET       NOT AVBL
MIDDLESBORO    NOT AVBL
MONTICELLO     SUNNY     40  16  38 VRB5      30.52R
$$




USA.gov is the U.S. government's official web portal to all federal, state and local government web resources and services.